#timestamp,LO_Frequency,Hit,StdDev 
1566734415.0,286046999.7,N
1566734415.9,286046999.7,N
1566734435.8,286046999.7,N
1566734455.6,286046999.8,N
1566734475.4,286047000.3,N
1566734495.3,286046998.2,N
1566734515.1,286046998.8,N
1566734535.8,286046996.7,N
1566734555.7,286046996.7,N
1566734575.5,286046999.5,N
1566734595.4,286046997.1,N
1566734615.2,286046996.7,N
1566734635.0,286046996.8,N
1566734635.9,286046996.8,N
1566734655.8,286046999.2,N
1566734675.6,286046999.5,N
1566734695.5,286046996.5,N
1566734715.3,286046999.4,N
1566734735.1,286046996.9,N
1566734755.9,286046998.8,N
1566734775.7,286046998.6,N
1566734795.5,286046999.4,N
1566734815.4,286046999.3,N
1566734835.2,286046996.9,N
1566734855.1,286046996.7,N
1566734856.0,286046996.7,N
1566734875.8,286046996.7,N
1566734895.6,286046997.3,N
1566734915.5,286046999.1,N
1566734935.3,286046999.6,N
1566734955.1,286046998.9,N
1566734975.9,286046999.1,N
1566734995.7,286046996.5,N
1566735015.6,286046996.9,N
1566735035.4,286046999.6,N
1566735055.2,286046997.2,N
1566735075.1,286046999.5,N
1566735076.0,286046999.5,N
1566735095.8,286046997.7,N
1566735115.7,286046997.3,N
1566735135.5,286046995.1,Y
1566735155.3,286046998.0,P
1566735175.2,286046994.9,P
1566735195.0,286046995.0,P
1566735195.9,286046995.0,Y
1566735215.8,286047001.0,P
1566735235.6,286046998.6,N
1566735255.4,286047000.7,N
1566735275.3,286047000.9,N
1566735295.1,286047000.1,N
1566735315.8,286046999.9,N
1566735335.7,286046998.8,N
1566735355.5,286046998.4,N
1566735375.4,286046998.8,N
1566735395.2,286046998.6,N
1566735415.0,286046998.5,N
1566735415.9,286046998.5,N
1566735435.8,286046998.3,N
1566735455.6,286047001.1,N
1566735475.4,286047001.2,N
1566735495.3,286047001.0,N
1566735515.1,286047001.0,N
1566735535.9,286046998.5,N
1566735555.7,286046999.4,N
1566735575.5,286046998.9,N
1566735595.4,286046998.4,N
1566735615.2,286047001.2,N
1566735635.0,286046998.1,N
1566735636.0,286046998.1,N
1566735655.8,286046998.1,N
1566735675.6,286047002.8,N
1566735695.5,286047000.0,N
1566735715.3,286047002.5,N
1566735735.1,286047002.4,N
1566735755.9,286047002.7,N
1566735775.7,286047002.5,N
1566735795.6,286047002.3,N
1566735815.4,286047002.8,N
1566735835.2,286047002.6,N
1566735855.1,286047002.3,N
1566735856.0,286047002.3,N
1566735875.8,286047001.8,N
1566735895.7,286047002.6,N
1566735915.5,286047001.9,N
1566735935.4,286047000.3,N
1566735955.2,286047002.2,N
1566735975.0,286047002.4,N
1566735975.9,286047002.4,N
1566735995.8,286047001.8,N
1566736015.6,286047002.4,N
1566736035.5,286046999.7,N
1566736055.3,286046999.9,N
1566736075.1,286047001.0,N
1566736095.9,286047000.0,N
1566736115.7,286046998.5,N
1566736135.5,286046998.2,N
1566736155.4,286046998.9,N
1566736175.2,286046998.3,N
1566736195.1,286046998.7,N
1566736196.0,286046998.7,N
1566736215.8,286047000.6,N
1566736235.6,286047001.1,N
1566736255.5,286047001.1,N
1566736275.3,286047000.8,N
1566736295.2,286047000.5,N
1566736315.9,286046999.9,N
1566736335.7,286047002.3,N
1566736355.6,286047002.8,N
1566736375.4,286047002.3,N
1566736395.2,286047000.1,N
1566736415.1,286047000.1,N
1566736416.0,286047000.1,N
1566736435.8,286047000.5,N
1566736455.7,286047000.5,N
1566736475.5,286047000.6,N
1566736495.3,286047000.9,N
1566736515.2,286047000.5,N
1566736535.0,286047002.3,N
1566736535.9,286047002.3,N
1566736555.8,286047002.0,N
1566736575.6,286047002.5,N
1566736595.4,286047002.0,N
1566736615.3,286047002.4,N
1566736635.1,286047000.2,N
1566736655.9,286047000.0,N
1566736675.7,286047002.4,N
1566736695.5,286046999.8,N
1566736715.4,286047001.5,N
1566736735.2,286047001.9,N
1566736755.0,286047002.3,N
1566736755.9,286047002.3,N
1566736775.8,286047000.1,N
1566736795.6,286047000.7,N
1566736815.5,286046999.9,N
1566736835.3,286047002.8,N
1566736855.1,286047002.4,N
1566736875.9,286046999.8,N
1566736895.7,286046999.8,N
1566736915.6,286047002.3,N
1566736935.4,286047002.4,N
1566736955.2,286047004.1,Y
1566736975.1,286046999.7,P
1566736976.0,286046999.7,N
1566736995.8,286047000.3,N
1566737015.7,286047000.5,N
1566737035.5,286047000.1,N
1566737055.3,286047000.5,N
1566737075.2,286046999.7,N
1566737095.0,286047000.4,N
1566737095.9,286047000.4,N
1566737115.7,286047000.7,N
1566737135.6,286047001.2,N
1566737155.4,286047000.6,N
1566737175.3,286047000.0,N
1566737195.1,286047001.0,N
1566737215.8,286047000.4,N
1566737235.7,286047001.0,N
1566737255.5,286046998.1,Y
1566737275.4,286047000.2,P
1566737295.2,286046998.2,P
1566737315.0,286047000.9,N
1566737315.9,286047000.9,N
1566737335.8,286047000.6,N
1566737355.6,286047000.5,N
1566737375.5,286047000.9,N
1566737395.3,286046999.9,N
1566737415.1,286047000.5,N
1566737435.9,286047001.2,N
1566737455.7,286046998.3,N
1566737475.5,286047000.9,N
1566737495.4,286047002.7,N
1566737515.2,286047002.4,N
1566737535.1,286047001.9,N
1566737536.0,286047001.9,N
1566737555.8,286047001.4,N
1566737575.6,286047004.4,Y
1566737595.5,286047001.9,P
1566737615.3,286047004.4,P
1566737635.2,286047004.0,N
1566737655.9,286047001.7,N
1566737675.7,286047001.3,N
1566737695.6,286047000.5,N
1566737715.4,286046998.3,N
1566737735.2,286047001.0,N
1566737755.1,286046999.7,N
1566737756.0,286046999.7,N
1566737775.8,286047001.9,N
1566737795.7,286047002.0,N
1566737815.5,286047002.6,N
1566737835.3,286047002.6,N
1566737855.2,286047001.7,N
1566737875.0,286047001.6,N
1566737875.9,286047001.6,N
1566737895.8,286047004.4,Y
1566737915.6,286047002.8,P
1566737935.4,286047002.2,P
1566737955.3,286047002.2,P
1566737975.1,286047002.3,Y
1566737995.9,286046999.3,P
